Location: Cartignies
(50.0929°N, 3.8447°E)
Time: 13:46:14
(UTC+00:00)

Cosmos 1190 Rocket - Pass Details

Date: 12 January 2026
Orbit: 753 x 775 km, 74.1° (Epoch: 16 February)

Event Time Altitude Azimuth Distance (km) Brightness Sun altitude
Rises 16:59:10 0° 336° (NNW) 3,217 7.2 -8.2°
Reaches altitude 10° 17:01:32 10° 337° (NNW) 2,288 6.5 -8.6°
Maximum altitude 17:06:44 87° 66° (ENE) 762 4.0 -9.3°
Drops below altitude 10° 17:11:55 10° 157° (SSE) 2,278 6.4 -10.1°
Sets 17:14:16 0° 157° (SSE) 3,202 7.2 -10.5°
